Satellite-Ground Cal/Val Region Overpasses Predictions

Prediction of Satellite NPP Overpassing Cal/Val Region: PacNW

Region Location: (Latitude: 10.00, Longitude: 139.50) to (Latitude: 22.70, Longitude: 165.60).

Table of predicted overpasses for the next 14.0 days since TLE Epoch: 2/25/2023
Interval Starting Time Starting Location Ending Time Ending Location
1 02/25/2023 14:41:04 ( 22.66, 165.15) 02/25/2023 14:44:39 ( 10.04, 162.14)
2 02/25/2023 16:22:34 ( 22.66, 139.77) 02/25/2023 16:22:52 ( 21.60, 139.51)
3 02/26/2023 03:31:39 ( 10.04, 147.28) 02/26/2023 03:35:14 ( 22.66, 144.27)
4 02/26/2023 16:03:32 ( 22.67, 144.54) 02/26/2023 16:07:07 ( 10.05, 141.53)
5 02/27/2023 03:12:36 ( 10.03, 152.05) 02/27/2023 03:16:11 ( 22.65, 149.04)
6 02/27/2023 15:44:29 ( 22.68, 149.31) 02/27/2023 15:48:05 ( 10.00, 146.28)
7 02/28/2023 02:53:34 ( 10.02, 156.81) 02/28/2023 02:57:10 ( 22.70, 153.79)
8 02/28/2023 15:25:27 ( 22.69, 154.07) 02/28/2023 15:29:03 ( 10.01, 151.05)
9 03/01/2023 02:34:31 ( 10.01, 161.58) 03/01/2023 02:38:07 ( 22.69, 158.55)
10 03/01/2023 15:06:24 ( 22.69, 158.84) 03/01/2023 15:10:00 ( 10.02, 155.81)
11 03/02/2023 02:16:24 ( 13.24, 165.60) 03/02/2023 02:19:05 ( 22.69, 163.32)
12 03/02/2023 03:56:59 ( 10.01, 140.97) 03/02/2023 03:58:46 ( 16.30, 139.50)
13 03/02/2023 14:47:22 ( 22.70, 163.60) 03/02/2023 14:50:58 ( 10.02, 160.58)
14 03/03/2023 03:37:57 ( 10.01, 145.73) 03/03/2023 03:41:33 ( 22.69, 142.71)
15 03/03/2023 14:31:36 ( 11.14, 165.60) 03/03/2023 14:31:55 ( 10.03, 165.34)
16 03/03/2023 16:09:49 ( 22.70, 142.99) 03/03/2023 16:13:25 ( 10.02, 139.96)
17 03/04/2023 03:18:54 ( 10.01, 150.49) 03/04/2023 03:22:30 ( 22.69, 147.47)
18 03/04/2023 15:50:47 ( 22.70, 147.75) 03/04/2023 15:54:23 ( 10.02, 144.73)
19 03/05/2023 02:59:52 ( 10.01, 155.26) 03/05/2023 03:03:28 ( 22.69, 152.23)
20 03/05/2023 15:31:44 ( 22.70, 152.52) 03/05/2023 15:35:20 ( 10.02, 149.49)
21 03/06/2023 02:40:49 ( 10.01, 160.02) 03/06/2023 02:44:25 ( 22.69, 157.00)
22 03/06/2023 15:12:42 ( 22.70, 157.28) 03/06/2023 15:16:18 ( 10.02, 154.26)
23 03/07/2023 02:21:47 ( 10.01, 164.79) 03/07/2023 02:25:23 ( 22.69, 161.76)
24 03/07/2023 14:53:39 ( 22.70, 162.04) 03/07/2023 14:57:15 ( 10.02, 159.02)
25 03/08/2023 03:44:14 ( 10.02, 144.17) 03/08/2023 03:47:50 ( 22.70, 141.15)
26 03/08/2023 14:36:01 ( 17.77, 165.60) 03/08/2023 14:38:13 ( 10.02, 163.78)
27 03/08/2023 16:16:07 ( 22.68, 141.43) 03/08/2023 16:18:22 ( 14.76, 139.51)
28 03/09/2023 03:25:12 ( 10.02, 148.94) 03/09/2023 03:28:47 ( 22.65, 145.93)
29 03/09/2023 15:57:04 ( 22.68, 146.19) 03/09/2023 16:00:40 ( 10.00, 143.17)
30 03/10/2023 03:06:09 ( 10.03, 153.70) 03/10/2023 03:09:44 ( 22.65, 150.69)
31 03/10/2023 15:38:02 ( 22.67, 150.95) 03/10/2023 15:41:37 ( 10.05, 147.94)
